2023/01/27 00:00:00,72.5,-2.4
2023/01/27 00:10:00,72.4,-2.9
2023/01/27 00:20:00,72.3,-2.6
2023/01/27 00:30:00,72.2,-2.4
2023/01/27 00:40:00,72.1,-2.2
2023/01/27 00:50:00,72.0,-2.4
2023/01/27 01:00:00,71.8,-2.4
2023/01/27 01:10:00,71.8,-2.3
2023/01/27 01:20:00,71.8,-2.4
2023/01/27 01:30:00,71.8,-2.7
2023/01/27 01:40:00,71.8,-2.3
2023/01/27 01:50:00,71.7,-2.1
2023/01/27 02:00:00,71.6,-2.9
2023/01/27 02:10:00,71.5,-2.3
2023/01/27 02:20:00,71.4,-2.4
2023/01/27 02:30:00,71.3,-1.9
2023/01/27 02:40:00,71.3,-1.8
2023/01/27 02:50:00,71.3,-1.9
2023/01/27 03:00:00,71.1,-2.1
2023/01/27 03:10:00,70.9,-2.1
2023/01/27 03:20:00,70.8,-2.4
2023/01/27 03:30:00,70.8,-2.3
2023/01/27 03:40:00,70.8,-1.9
2023/01/27 03:50:00,70.7,-2.0
2023/01/27 04:00:00,70.6,-1.7
2023/01/27 04:10:00,70.6,-2.1
2023/01/27 04:20:00,70.4,-1.7
2023/01/27 04:30:00,70.4,-2.0
2023/01/27 04:40:00,70.4,-1.8
2023/01/27 04:50:00,70.4,-1.7
2023/01/27 05:00:00,70.5,-1.5
2023/01/27 05:10:00,70.6,-1.6
2023/01/27 05:20:00,70.8,-1.4
2023/01/27 05:30:00,70.9,-1.3
2023/01/27 05:40:00,70.9,-1.2
2023/01/27 05:50:00,71.0,-1.2
2023/01/27 06:00:00,71.0,-1.5
2023/01/27 06:10:00,71.1,-1.4
2023/01/27 06:20:00,71.1,-1.5
2023/01/27 06:30:00,71.1,-1.0
2023/01/27 06:40:00,71.0,-1.2
2023/01/27 06:50:00,71.1,-1.1
2023/01/27 07:00:00,71.1,-1.1
2023/01/27 07:10:00,71.2,-0.7
2023/01/27 07:20:00,71.3,-0.9
2023/01/27 07:30:00,71.5,-1.0
2023/01/27 07:40:00,71.5,-1.1
2023/01/27 07:50:00,71.6,-0.9
2023/01/27 08:00:00,71.6,-0.7
2023/01/27 08:10:00,71.7,-0.5
2023/01/27 08:20:00,71.8,-0.2
2023/01/27 08:30:00,71.7,-0.2
2023/01/27 08:40:00,71.6,-0.5
2023/01/27 08:50:00,71.8,-0.1
2023/01/27 09:00:00,72.0,-0.3
2023/01/27 09:10:00,72.1,-0.2
2023/01/27 09:20:00,72.3,-0.5
2023/01/27 09:30:00,72.5,-0.1
2023/01/27 09:40:00,72.7, 0.1
2023/01/27 09:50:00,72.5, 0.0
2023/01/27 10:00:00,72.4, 0.0
2023/01/27 10:10:00,72.6, 0.0
2023/01/27 10:20:00,72.7,-0.1
2023/01/27 10:30:00,72.9, 0.0
2023/01/27 10:40:00,73.0,-0.2
2023/01/27 10:50:00,72.9, 0.0
2023/01/27 11:00:00,73.0, 0.7
2023/01/27 11:10:00,73.1, 0.9
2023/01/27 11:20:00,72.9, 1.1
2023/01/27 11:30:00,72.7, 1.4
2023/01/27 11:40:00,72.5, 1.4
2023/01/27 11:50:00,72.5, 1.5
2023/01/27 12:00:00,72.3, 0.8
2023/01/27 12:10:00,72.3, 0.1
2023/01/27 12:20:00,72.4,-0.1
2023/01/27 12:30:00,72.5, 0.0
2023/01/27 12:40:00,72.8, 0.0
2023/01/27 12:50:00,73.0, 0.6
2023/01/27 13:00:00,72.8, 0.0
2023/01/27 13:10:00,72.8, 0.0
2023/01/27 13:20:00,73.0,-0.3
2023/01/27 13:30:00,73.6,-0.5
2023/01/27 13:40:00,74.8, 0.1
2023/01/27 13:50:00,75.0,-0.1
2023/01/27 14:00:00,75.1,-0.5
2023/01/27 14:10:00,75.0,-0.6
2023/01/27 14:20:00,75.2,-0.7
2023/01/27 14:30:00,75.3,-0.8
2023/01/27 14:40:00,75.2,-0.8
2023/01/27 14:50:00,75.6,-0.7
2023/01/27 15:00:00,75.8,-1.4
2023/01/27 15:10:00,76.2,-0.9
2023/01/27 15:20:00,77.5,-1.0
2023/01/27 15:30:00,78.0,-1.1
2023/01/27 15:40:00,78.1,-0.8
2023/01/27 15:50:00,78.3,-1.1
2023/01/27 16:00:00,79.1,-1.1
2023/01/27 16:10:00,80.0,-1.3
2023/01/27 16:20:00,80.7,-1.7
2023/01/27 16:30:00,80.8,-1.6
2023/01/27 16:40:00,81.4,-1.9
2023/01/27 16:50:00,82.3,-2.0
2023/01/27 17:00:00,82.7,-2.1
2023/01/27 17:10:00,82.9,-2.0
2023/01/27 17:20:00,83.2,-2.1
2023/01/27 17:30:00,83.2,-2.1
2023/01/27 17:40:00,83.2,-2.3
2023/01/27 17:50:00,82.9,-2.4
2023/01/27 18:00:00,82.7,-2.2
2023/01/27 18:10:00,82.7,-2.3
2023/01/27 18:20:00,25.0,-2.6
2023/01/27 18:30:00,83.4,-2.6
2023/01/27 18:40:00,83.4,-2.8
2023/01/27 18:50:00,83.3,-3.0
2023/01/27 19:00:00,83.1,-2.6
2023/01/27 19:10:00,83.1,-2.7
2023/01/27 19:20:00,83.2,-2.8
2023/01/27 19:30:00,83.4,-2.6
2023/01/27 19:40:00,83.6,-2.9
2023/01/27 19:50:00,83.6,-3.0
2023/01/27 20:00:00,83.4,-2.8
2023/01/27 20:10:00,83.3,-2.5
2023/01/27 20:20:00,83.3,-2.8
2023/01/27 20:30:00,83.3,-2.8
2023/01/27 20:40:00,83.2,-3.0
2023/01/27 20:50:00,82.9,-2.7
2023/01/27 21:00:00,82.8,-2.9
2023/01/27 21:10:00,82.8,-3.3
2023/01/27 21:20:00,82.8,-3.2
2023/01/27 21:30:00,83.1,-3.2
2023/01/27 21:40:00,83.4,-3.2
2023/01/27 21:50:00,83.2,-3.4
2023/01/27 22:00:00,83.2,-3.1
2023/01/27 22:10:00,83.2,-3.2
2023/01/27 22:20:00,83.2,-3.2
2023/01/27 22:30:00,83.2,-3.2
2023/01/27 22:40:00,83.1,-3.4
2023/01/27 22:50:00,83.1,-3.2
2023/01/27 23:00:00,82.9,-3.7
2023/01/27 23:10:00,82.9,-3.2
2023/01/27 23:20:00,82.9,-3.4
2023/01/27 23:30:00,82.7,-3.5
2023/01/27 23:40:00,82.7,-3.2
2023/01/27 23:50:00,82.4,-3.5
